Regional Weather Roundup
Issued by NWS Portland, ME

Home | Current Version | Previous Version | Text Only | Print | Product List | Glossary On
Versions: 1 2 3 4 5 6 7 8 9 10 11 12 13 14 15 16 17 18 19 20 21 22 23 24 25 26 27 28 29 30 31 32 33 34 35 36 37 38 39 40 41 42 43 44 45 46 47 48 49 50
000
ASUS41 KGYX 260010
RWRGYX
WEATHER ROUNDUP FOR MAINE AND NEW HAMPSHIRE
NATIONAL WEATHER SERVICE GRAY ME
800 PM EDT MON MAY 25 2015

MEZ002-005-006-010-012-015-018-020-021-024-026-027-029-260100-
MAINE

CITY           SKY/WX    TMP DP  RH WIND       PRES   REMARKS
PORTLAND       CLOUDY    68  53  58 S8        30.12F
6HR MIN TEMP:  68; 6HR MAX TEMP:  84;

BAR HARBOR     MOCLDY    57  52  82 S10       30.13S
WISCASSET      CLOUDY    69  52  54 S3        30.15S
6HR MIN TEMP:  69; 6HR MAX TEMP:  81;

ROCKLAND       CLOUDY    64  50  59 SW7       30.14R
FRYEBURG       CLOUDY    68  58  70 CALM      30.12F
6HR MIN TEMP:  68; 6HR MAX TEMP:  79; 6HR PCP: TRACE;

LEWISTONAUBURN CLOUDY    72  54  53 SE6       30.12F
AUGUSTA        CLOUDY    71  52  50 S3        30.14R
6HR MIN TEMP:  71; 6HR MAX TEMP:  79;

WATERVILLE       N/A    N/A N/A N/A MISG        N/A
BANGOR         CLOUDY    71  53  52 S5        30.11R
6HR MIN TEMP:  71; 6HR MAX TEMP:  79;

GREENVILLE       N/A     62  54  74 CALM      30.11S
6HR MIN TEMP:  62; 6HR MAX TEMP:  73;

MILLINOCKET    CLOUDY    70  52  52 CALM      30.09S
6HR MIN TEMP:  70; 6HR MAX TEMP:  79;

HOULTON        CLOUDY    70  47  43 SW5       30.06S
6HR MIN TEMP:  70; 6HR MAX TEMP:  80;

PRESQUE ISLE   CLOUDY    70  45  40 SW5       30.05S
6HR MIN TEMP:  70; 6HR MAX TEMP:  81;

FRENCHVILLE    CLOUDY    68  46  45 SW13      30.02R
6HR MIN TEMP:  68; 6HR MAX TEMP:  79;

CARIBOU        CLOUDY    69  47  45 W9        30.03R
6HR MIN TEMP:  68; 6HR MAX TEMP:  80;

$$

NHZ002-005-008-009-011-012-014-260100-
NEW HAMPSHIRE

CITY           SKY/WX    TMP DP  RH WIND       PRES   REMARKS
PORTSMOUTH     CLOUDY    72  55  55 SE8       30.10F
ROCHESTER      MOCLDY    73  56  54 S6        30.11F
6HR MIN TEMP:  73; 6HR MAX TEMP:  82;

NASHUA         MOCLDY    77  57  49 VRB7      30.13S
MANCHESTER     CLOUDY    78  56  46 S12G22    30.10S
6HR MIN TEMP:  76; 6HR MAX TEMP:  81;

CONCORD        MOCLDY    77  56  48 S13       30.10F
6HR MIN TEMP:  76; 6HR MAX TEMP:  80;

LACONIA        MOCLDY    72  55  56 NW5       30.08F
PLYMOUTH       LGT RAIN  68  64  85 CALM      30.11S
BERLIN         LGT RAIN  62  58  86 CALM      30.12F
6HR MIN TEMP:  62; 6HR MAX TEMP:  75; 6HR PCP: TRACE;

WHITEFIELD     LGT RAIN  63  59  87 CALM      30.12S
6HR MIN TEMP:  63; 6HR MAX TEMP:  73; 6HR PCP: TRACE;

JAFFREY        MOCLDY    74  55  51 S8        30.14F
6HR MIN TEMP:  72; 6HR MAX TEMP:  79;

KEENE          CLOUDY    75  55  50 S7        30.11S
LEBANON        CLOUDY    67  63  87 CALM      30.08F
6HR MIN TEMP:  67; 6HR MAX TEMP:  77; 6HR PCP: TRACE;

MT WASHINGTON  LGT RAIN  48  45  87 W47G54      N/A
6HR MIN TEMP:  43; 6HR MAX TEMP:  49; 6HR PCP:  0.04;

$$

VTZ005-007-008-260100-
VERMONT

CITY           SKY/WX    TMP DP  RH WIND       PRES   REMARKS
ST JOHNSBURY     N/A     63  60  90 MISG      30.08F
MONTPELIER     LGT RAIN  64  57  78 SW6       30.13F
BURLINGTON     LGT RAIN  70  57  63 W6        30.04R
$$

MAZ007-012-024-CTZ003-RIZ002-NYZ038-NYZ072-260100-
SOUTHERN NEW ENGLAND AND NY

CITY           SKY/WX    TMP DP  RH WIND       PRES   REMARKS
BOSTON         CLOUDY    71  56  58 S13       30.15F
WORCESTER      MOCLDY    72  53  51 S14       30.17F
NANTUCKET      CLOUDY    59  55  87 SW14      30.26S
PROVIDENCE     MOCLDY    66  57  72 S10       30.20S
HARTFORD       MOCLDY    76  55  48 S14       30.13S
ALBANY         MOCLDY    83  55  38 S13       30.04S
NEW YORK CITY  MOCLDY    78  56  46 S13       30.16R
$$

ANZ081-ANZ082-ANZ150-NHZ014-MEZ023>029-260100-
COASTAL MARINE OBSERVATIONS

STATION/POSITION TIME  TEMP    WIND        PRES    WAVE
                       AIR SEA DIR/SP/G            HT/PER
                 (UTC) (F)     (DEG/KT/KT) (MB)    (FT/S)
MOUNT DESERT ROC 0000   50     200/ 18/ 19   N/A
MATINICUS ROCK   2300   53     210/ 22/ 23   N/A
ISLE OF SHOALS   2300   65     170/ 21/ 22   N/A
JEFFREYS LEDGE   2303      49                N/A     2/ 3
CASHES LEDGE BUO 2350   54 49                N/A     3/ 5
GEORGES BANK BUO 2350   55 49  200/ 10/ 12   N/A     2/ 5
$$

.............KEY..............
   WCI - WIND CHILL
   TC  - TEMPERATURE IN CELSIUS
   VSB - VISIBILITY IN MILES
   HX  - HEAT INDEX
   FAIR- INDICATES FEW OR NO CLOUDS BELOW 12,000 FT, WITH NO
         SIGNIFICANT WEATHER AND/OR OBSTRUCTIONS TO VISIBILITY.





USA.gov is the U.S. government's official web portal to all federal, state and local government web resources and services.